Weather History for Augusta Bush, GA

Change the Weather History Date:

Wednesday, December 4, 2013

  Actual Average Record
Temperature  
Mean Temperature 64 °F 50 °F  
Max Temperature 72 °F 63 °F 80 °F (1978)
Min Temperature 56 °F 37 °F 16 °F (1960)
Degree Days  
Heating Degree Days 1 15  
Month to date heating degree days 38 60  
Since 1 July heating degree days 497 482  
Cooling Degree Days 0 0  
Month to date cooling degree days 0 0  
Year to date cooling degree days 1865 2086  
Growing Degree Days 14 (Base 50)    
Moisture  
Dew Point 59 °F    
Average Humidity 84    
Maximum Humidity 100    
Minimum Humidity 68    
Precipitation  
Precipitation 0.09 in 0.11 in 2.59 in (1953)
Month to date precipitation 0.81 0.42  
Year to date precipitation 49.43 40.60  
Sea Level Pressure  
Sea Level Pressure 30.01 in    
Wind  
Wind Speed 2 mph (SSE)    
Max Wind Speed 8 mph    
Max Gust Speed 9 mph    
Visibility 6 miles    
Events Fog , Rain    
T = Trace of Precipitation, MM = Missing Value Source: NWS Daily Summary

Daily Weather History Graph

Daily Weather History Graph

Search for Another Location

Airport:

Trip Planner

Search our weather history database for the weather conditions in past years. The results will help you decide how hot, cold, wet, or windy it might be!

Date:

Astronomy

Dec. 04, 2013 Rise Set
Actual Time 7:16 AM EST 5:19 PM EST
Civil Twilight 6:49 AM EST 5:47 PM EST
Nautical Twilight 6:18 AM EST 6:17 PM EST
Astronomical Twilight 5:48 AM EST 6:48 PM EST
Moon 8:45 AM EST (12/4) 7:26 PM EST (12/4)
Length of Visible Light 10h 58m
Length of Day
10h 03m
Waxing Crescent, 4% of the Moon is Illuminated
Dec 4
Waxing Crescent
Dec 9
First Quarter
Dec 17
Full
Dec 25
Last Quarter
Jan 1
New

Hourly Weather History & Observations

Time (EST) Temp. Dew Point Humidity Pressure Visibility Wind Dir Wind Speed Gust Speed Precip Events Conditions
12:43 AM 57.2 °F 57.2 °F 100% 29.96 in 2.5 mi SSE 3.5 mph - 0.06 in Rain Heavy Rain
12:50 AM 57.2 °F 57.2 °F 100% 29.95 in 2.5 mi East 3.5 mph - 0.09 in Rain Light Rain
12:53 AM 57.0 °F 57.0 °F 100% 29.95 in 4.0 mi Calm Calm - 0.09 in Rain Light Rain
1:29 AM 57.2 °F 57.2 °F 100% 29.95 in 6.0 mi Calm Calm - 0.01 in   Overcast
1:50 AM 57.2 °F 55.4 °F 94% 29.95 in 5.0 mi SSE 4.6 mph - 0.01 in   Overcast
1:53 AM 57.0 °F 55.9 °F 96% 29.95 in 5.0 mi SE 4.6 mph - 0.01 in   Overcast
2:11 AM 57.2 °F 57.2 °F 100% 29.95 in 5.0 mi ESE 4.6 mph - N/A   Overcast
2:20 AM 57.2 °F 57.2 °F 100% 29.95 in 5.0 mi SE 5.8 mph - N/A   Overcast
2:45 AM 57.2 °F 57.2 °F 100% 29.95 in 5.0 mi SE 4.6 mph - N/A   Overcast
2:53 AM 57.0 °F 57.0 °F 100% 29.95 in 5.0 mi Calm Calm - N/A   Overcast
3:53 AM 57.9 °F 57.0 °F 97% 29.97 in 3.0 mi Calm Calm - 0.00 in   Overcast
4:22 AM 57.2 °F 57.2 °F 100% 29.97 in 2.5 mi Calm Calm - N/A   Overcast
4:34 AM 57.2 °F 57.2 °F 100% 29.97 in 2.5 mi Calm Calm - N/A   Overcast
4:53 AM 57.0 °F 57.0 °F 100% 29.96 in 2.0 mi Calm Calm - N/A   Overcast
5:07 AM 57.2 °F 57.2 °F 100% 29.96 in 1.8 mi Calm Calm - N/A   Overcast
5:17 AM 57.2 °F 57.2 °F 100% 29.97 in 2.0 mi Calm Calm - N/A   Overcast
5:53 AM 57.9 °F 57.0 °F 97% 29.98 in 2.5 mi Calm Calm - N/A   Overcast
6:07 AM 57.2 °F 57.2 °F 100% 29.98 in 3.0 mi Calm Calm - 0.00 in   Overcast
6:40 AM 57.2 °F 57.2 °F 100% 29.99 in 3.0 mi Calm Calm - 0.00 in   Overcast
6:53 AM 57.9 °F 57.0 °F 97% 30.00 in 3.0 mi Calm Calm - 0.00 in   Overcast
7:13 AM 57.2 °F 57.2 °F 100% 30.01 in 4.0 mi Calm Calm - N/A   Overcast
7:46 AM 57.2 °F 57.2 °F 100% 30.03 in 2.5 mi Calm Calm - N/A   Overcast
7:53 AM 57.9 °F 57.9 °F 100% 30.02 in 1.8 mi Calm Calm - N/A   Overcast
8:33 AM 59.0 °F 57.2 °F 94% 30.03 in 3.0 mi SE 3.5 mph - N/A   Overcast
8:53 AM 60.1 °F 59.0 °F 96% 30.04 in 4.0 mi SSE 3.5 mph - N/A   Overcast
9:40 AM 60.8 °F 60.8 °F 100% 30.06 in 3.0 mi SSE 4.6 mph - N/A   Overcast
9:53 AM 61.0 °F 60.1 °F 97% 30.06 in 4.0 mi South 4.6 mph - N/A   Overcast
10:33 AM 62.6 °F 60.8 °F 94% 30.08 in 5.0 mi South 4.6 mph - N/A   Overcast
10:53 AM 64.0 °F 61.0 °F 90% 30.08 in 5.0 mi Calm Calm - N/A   Overcast
11:53 AM 66.0 °F 62.1 °F 87% 30.06 in 10.0 mi South 4.6 mph - N/A   Overcast
12:08 PM 66.2 °F 62.6 °F 88% 30.05 in 10.0 mi SSE 3.5 mph - N/A   Overcast
12:53 PM 66.9 °F 62.1 °F 84% 30.03 in 10.0 mi South 5.8 mph - N/A   Overcast
1:37 PM 69.8 °F 62.6 °F 78% 30.01 in 10.0 mi SW 5.8 mph - N/A   Overcast
1:53 PM 70.0 °F 62.1 °F 76% 30.01 in 10.0 mi South 4.6 mph - N/A   Overcast
2:53 PM 71.1 °F 61.0 °F 70% 30.00 in 10.0 mi SW 4.6 mph - N/A   Mostly Cloudy
3:53 PM 71.1 °F 61.0 °F 70% 30.00 in 10.0 mi Calm Calm - N/A   Scattered Clouds
4:04 PM 69.8 °F 60.8 °F 73% 30.01 in 10.0 mi WSW 3.5 mph - N/A   Mostly Cloudy
4:53 PM 66.9 °F 61.0 °F 81% 30.01 in 10.0 mi South 3.5 mph - N/A   Mostly Cloudy
5:49 PM 64.4 °F 60.8 °F 88% 30.03 in 10.0 mi Calm Calm - N/A   Mostly Cloudy
5:53 PM 64.0 °F 62.1 °F 93% 30.03 in 10.0 mi Calm Calm - N/A   Mostly Cloudy
6:53 PM 60.1 °F 60.1 °F 100% 30.05 in 10.0 mi SSW 4.6 mph - N/A Fog Shallow Fog
7:53 PM 57.0 °F 57.0 °F 100% 30.06 in 10.0 mi Calm Calm - N/A Fog Shallow Fog
8:53 PM 60.1 °F 60.1 °F 100% 30.07 in 10.0 mi South 4.6 mph - N/A Fog Shallow Fog
9:53 PM 59.0 °F 59.0 °F 100% 30.08 in 6.0 mi Calm Calm - N/A   Overcast
10:16 PM 59.0 °F 59.0 °F 100% 30.07 in 1.8 mi Calm Calm - N/A   Mostly Cloudy
10:28 PM 59.0 °F 59.0 °F 100% 30.07 in 0.5 mi Calm Calm - N/A Fog Fog
10:39 PM 59.0 °F 59.0 °F 100% 30.08 in 7.0 mi Calm Calm - N/A Fog Shallow Fog
10:53 PM 59.0 °F 59.0 °F 100% 30.08 in 7.0 mi Calm Calm - N/A Fog Shallow Fog
11:00 PM 59.0 °F 59.0 °F 100% 30.08 in 1.2 mi Calm Calm - N/A Fog Shallow Fog
11:05 PM 60.8 °F 59.0 °F 94% 30.09 in 3.0 mi Calm Calm - N/A Fog Shallow Fog
11:53 PM 61.0 °F 61.0 °F 100% 30.09 in 7.0 mi SSE 3.5 mph - N/A Fog Shallow Fog